Change the Weather History Date:

Saturday, June 22, 2013

  Actual Average Record
Temperature  
Mean Temperature 58 °F 60 °F  
Max Temperature 77 °F 76 °F 97 °F (1992)
Min Temperature 38 °F 44 °F 31 °F (1952)
Degree Days  
Heating Degree Days 7 5  
Month to date heating degree days 150 181  
Since 1 June heating degree days 150 181  
Since 1 July heating degree days 6607 6937  
Cooling Degree Days 0 0  
Month to date cooling degree days 18 0  
Year to date cooling degree days 18 1  
Since 1 June cooling degree days 18 0  
Growing Degree Days 7 (Base 50)    
Moisture  
Dew Point 39 °F    
Average Humidity 52    
Maximum Humidity 100    
Minimum Humidity 25    
Precipitation  
Precipitation 0.00 in 0.04 in 0.63 in (2002)
Month to date precipitation 0.34 0.66  
Year to date precipitation 3.73 8.45  
Sea Level Pressure  
Sea Level Pressure 29.97 in    
Wind  
Wind Speed 4 mph (NW)    
Max Wind Speed 17 mph    
Max Gust Speed 20 mph    
Visibility 10 miles    
Events      
T = Trace of Precipitation, MM = Missing Value Source: NWS Daily Summary

Daily Weather History Graph

Daily Weather History Graph

Search for Another Location

Airport or City:

Trip Planner

Search our weather history database for the weather conditions in past years. The results will help you decide how hot, cold, wet, or windy it might be!

Date:

Astronomy

Jun. 22, 2013 Rise Set
Actual Time 5:31 AM PDT 8:46 PM PDT
Civil Twilight 4:56 AM PDT 9:21 PM PDT
Nautical Twilight 4:11 AM PDT 10:06 PM PDT
Astronomical Twilight 3:17 AM PDT 11:00 PM PDT
Moon 8:05 PM PDT (6/22) 4:50 AM PDT (6/22)
Length of Visible Light 16h 24m
Length of Day
15h 15m
Waxing Gibbous, 99% of the Moon is Illuminated
Jun 22
Waxing Gibbous
Jun 23
Full
Jun 29
Last Quarter
Jul 8
New
Jul 15
First Quarter

Hourly Weather History & Observations

Time (PDT) Temp. Dew Point Humidity Pressure Visibility Wind Dir Wind Speed Gust Speed Precip Events Conditions
12:53 AM 50.0 °F 41.0 °F 71% 30.06 in 10.0 mi WNW 3.5 mph - N/A   Clear
1:53 AM 46.9 °F 41.0 °F 80% 30.06 in 10.0 mi West 4.6 mph - N/A   Clear
2:53 AM 43.0 °F 39.9 °F 89% 30.06 in 10.0 mi Calm Calm - N/A   Clear
3:53 AM 42.1 °F 39.0 °F 89% 30.06 in 10.0 mi Calm Calm - N/A   Clear
4:53 AM 39.9 °F 39.0 °F 97% 30.06 in 10.0 mi Calm Calm - N/A   Clear
5:53 AM 39.9 °F 37.9 °F 93% 30.06 in 10.0 mi Calm Calm - N/A   Clear
6:53 AM 45.0 °F 41.0 °F 86% 30.06 in 10.0 mi Calm Calm - N/A   Clear
7:53 AM 52.0 °F 42.1 °F 69% 30.05 in 10.0 mi Calm Calm - N/A   Clear
8:53 AM 55.9 °F 41.0 °F 57% 30.04 in 10.0 mi Calm Calm - N/A   Clear
9:53 AM 57.9 °F 39.9 °F 51% 30.04 in 10.0 mi Variable 3.5 mph - N/A   Clear
10:53 AM 63.0 °F 39.0 °F 41% 30.02 in 10.0 mi Variable 4.6 mph - N/A   Clear
11:53 AM 66.0 °F 39.9 °F 38% 30.01 in 10.0 mi Calm Calm - N/A   Clear
12:53 PM 68.0 °F 39.0 °F 35% 29.99 in 10.0 mi Variable 3.5 mph - N/A   Clear
1:53 PM 69.1 °F 37.9 °F 32% 29.97 in 10.0 mi Calm Calm - N/A   Clear
2:53 PM 73.9 °F 39.0 °F 28% 29.94 in 10.0 mi Variable 4.6 mph - N/A   Partly Cloudy
3:53 PM 73.9 °F 37.9 °F 27% 29.92 in 10.0 mi NNW 4.6 mph - N/A   Partly Cloudy
4:53 PM 75.0 °F 37.9 °F 26% 29.90 in 10.0 mi WSW 3.5 mph - N/A   Scattered Clouds
5:53 PM 75.9 °F 37.9 °F 25% 29.88 in 10.0 mi West 12.7 mph - N/A   Mostly Cloudy
6:53 PM 73.0 °F 37.9 °F 28% 29.88 in 10.0 mi NW 11.5 mph - N/A   Clear
7:53 PM 70.0 °F 33.1 °F 26% 29.87 in 10.0 mi NNW 13.8 mph - N/A   Scattered Clouds
8:53 PM 66.9 °F 35.1 °F 31% 29.86 in 8.0 mi NNW 11.5 mph - N/A   Overcast
9:53 PM 64.9 °F 39.0 °F 39% 29.88 in 9.0 mi WNW 5.8 mph - N/A   Mostly Cloudy
10:53 PM 64.0 °F 42.1 °F 45% 29.86 in 10.0 mi NNW 8.1 mph - N/A   Partly Cloudy
11:53 PM 62.1 °F 42.1 °F 48% 29.85 in 10.0 mi NW 4.6 mph - N/A   Mostly Cloudy